Ithaca, NY

7:42 PM EST on December 12, 2017 (GMT -0500)
Tompkins County

Weather History for KITH - August, 2014

Change the Weather History Date:

Wednesday, August 13, 2014

  Actual Average Record
Temperature  
Mean Temperature 68 °F -  
Max Temperature 73 °F 76 °F 95 °F (1944)
Min Temperature 63 °F 54 °F 40 °F (1930)
Cooling Degree Days 2    
Growing Degree Days 18 (Base 50)    
Moisture  
Dew Point 63 °F    
Average Humidity 89    
Maximum Humidity 100    
Minimum Humidity 64    
Precipitation  
Precipitation 0.54 in - - ()
Sea Level Pressure  
Sea Level Pressure 29.78 in    
Wind  
Wind Speed 7 mph (SSW)    
Max Wind Speed 16 mph    
Max Gust Speed -    
Visibility 9 miles    
Events Rain    
Averages and records for this station are not official NWS values.
T = Trace of Precipitation, MM = Missing Value Source: NWS Daily Summary

Daily Weather History Graph

Daily Weather History Graph

Search for Another Location

Airport or City:

Trip Planner

Search our weather history database for the weather conditions in past years. The results will help you decide how hot, cold, wet, or windy it might be!

Date:

Astronomy

Aug. 13, 2014 Rise Set
Actual Time 6:10 AM EDT 8:10 PM EDT
Civil Twilight 5:40 AM EDT 8:40 PM EDT
Nautical Twilight 5:02 AM EDT 9:17 PM EDT
Astronomical Twilight 4:21 AM EDT 9:58 PM EDT
Moon 9:47 PM EDT 9:41 AM EDT
Length of Visible Light 15h 00m
Length of Day
13h 59m
Waning Gibbous, 88% of the Moon is Illuminated
Aug 13
Waning Gibbous
Aug 17
Last Quarter
Aug 25
New
Sep 2
First Quarter
Sep 8
Full

Hourly Weather History & Observations

Time (EDT) Temp. Dew Point Humidity Pressure Visibility Wind Dir Wind Speed Gust Speed Precip Events Conditions
12:56 AM 64.9 °F 63.0 °F 93% 29.80 in 10.0 mi South 8.1 mph - 0.01 in Rain Light Rain
1:35 AM 64.4 °F 64.4 °F 100% 29.81 in 2.5 mi SSW 4.6 mph - 0.19 in Rain Rain
1:42 AM 64.4 °F 64.4 °F 100% 29.81 in 6.0 mi SSW 6.9 mph - 0.21 in Rain Rain
1:56 AM 64.9 °F 63.9 °F 96% 29.78 in 4.0 mi SSE 8.1 mph - 0.29 in Rain Rain
2:04 AM 64.4 °F 64.4 °F 100% 29.79 in 4.0 mi SSE 6.9 mph - 0.03 in Rain Rain
2:45 AM 64.4 °F 64.4 °F 100% 29.80 in 6.0 mi South 6.9 mph - 0.18 in Rain Rain
2:56 AM 64.9 °F 63.9 °F 96% 29.78 in 5.0 mi South 5.8 mph - 0.22 in Rain Rain
3:05 AM 64.4 °F 64.4 °F 100% 29.79 in 7.0 mi South 4.6 mph - 0.02 in Rain Light Rain
3:34 AM 64.4 °F 64.4 °F 100% 29.77 in 10.0 mi SE 5.8 mph - 0.02 in Rain Light Rain
3:56 AM 64.9 °F 63.9 °F 96% 29.76 in 10.0 mi South 5.8 mph - 0.02 in   Overcast
4:06 AM 64.4 °F 64.4 °F 100% 29.77 in 10.0 mi South 5.8 mph - N/A   Overcast
4:15 AM 64.4 °F 64.4 °F 100% 29.77 in 9.0 mi South 3.5 mph - N/A   Overcast
4:44 AM 66.2 °F 64.4 °F 94% 29.77 in 10.0 mi South 8.1 mph - N/A   Overcast
4:56 AM 65.8 °F 64.9 °F 97% 29.76 in 10.0 mi SSW 6.9 mph - N/A   Overcast
5:56 AM 64.9 °F 63.9 °F 96% 29.76 in 10.0 mi SE 4.6 mph - N/A   Scattered Clouds
6:22 AM 64.4 °F 64.4 °F 100% 29.78 in 10.0 mi Calm Calm - N/A   Mostly Cloudy
6:56 AM 63.9 °F 63.0 °F 97% 29.78 in 10.0 mi South 3.5 mph - N/A   Scattered Clouds
7:18 AM 64.4 °F 62.6 °F 94% 29.80 in 10.0 mi SSE 3.5 mph - N/A   Mostly Cloudy
7:56 AM 66.9 °F 64.9 °F 93% 29.78 in 10.0 mi SSW 4.6 mph - N/A   Mostly Cloudy
8:56 AM 70.0 °F 63.9 °F 81% 29.79 in 10.0 mi West 3.5 mph - N/A   Mostly Cloudy
9:56 AM 70.9 °F 64.9 °F 81% 29.78 in 10.0 mi West 8.1 mph - N/A   Mostly Cloudy
11:56 AM 66.9 °F 63.0 °F 87% 29.81 in 10.0 mi NW 6.9 mph - 0.00 in   Mostly Cloudy
12:56 PM 72.0 °F 61.9 °F 70% 29.79 in 10.0 mi NW 11.5 mph - 0.00 in   Mostly Cloudy
1:56 PM 70.9 °F 59.9 °F 68% 29.78 in 10.0 mi NNW 13.8 mph - N/A   Mostly Cloudy
2:56 PM 72.9 °F 59.9 °F 64% 29.77 in 10.0 mi NW 16.1 mph - N/A   Mostly Cloudy
3:56 PM 70.9 °F 59.9 °F 68% 29.77 in 10.0 mi NW 10.4 mph - N/A   Mostly Cloudy
4:56 PM 70.0 °F 59.0 °F 68% 29.77 in 10.0 mi WNW 12.7 mph - N/A   Mostly Cloudy
5:56 PM 68.9 °F 59.0 °F 71% 29.79 in 10.0 mi NW 12.7 mph - N/A   Mostly Cloudy
6:56 PM 68.9 °F 57.9 °F 68% 29.80 in 10.0 mi WNW 12.7 mph - N/A   Scattered Clouds